Retour au catalogue

SL-14 DEB

ActifPO
NORAD 45323·DEBRIS·🇷🇺 Russia

Lancé Aug 15, 1991 depuis Plesetsk Cosmodrome

Loading…

Prochains Passages (prochaines 24 heures)

TLE

FraisSource: Space-Track

Époque: Sep 13, 2026, 11:58 UTC

1 45323U 91056BM  26256.49871845  .00000478  00000-0  11401-2 0  9993
2 45323  82.5271  64.0063 0006677 200.2989 159.7871 13.21032950315057

Suivez SL-14 DEB en temps réel avec AllMySat

Download on the App Store